User: anonymous   Login
Location: 5810 Zion Rd, Cleves, OH 45002, USA
(39.1922°N, 84.7113°W)
Time: 08:15:36
(UTC-05:00)
Language:

Vanguard 3 - Orbit

View from above orbital plane
View from above orbital plane
View from above satellite
View from above satellite

Ground track
Ground track

The orbit data is extracted from the following two-line orbital elements,

1    20U 59007A   19344.16575685  .00000002  00000-0 -33783-5 0  9999
2    20  33.3456 139.9436 1667110 337.3186  16.1359 11.55690702208614
Epoch (UTC): 10 December 2019 03:58:41
Eccentricity: 0.1667110
inclination: 33.3456°
perigee height: 508 km
apogee height: 3263 km
right ascension of ascending node: 139.9436°
argument of perigee: 337.3186°
revolutions per day: 11.55690702
mean anomaly at epoch: 16.1359°
orbit number at epoch: 20861

The dashed part of the orbit path shows where the satellite is in the earth's shadow,  

DLR